User: anonymous   Login
Location: Unspecified
(0.0000°N, 0.0000°E)
Time: 09:32:04
(UTC+00:00)
Language:

Syncom 2 - Orbit

View from above orbital plane
View from above orbital plane
View from above satellite
View from above satellite

Ground track
Ground track

The orbit data is extracted from the following two-line orbital elements,

1   634U 63031A   17283.56743389 -.00000028 +00000-0 +00000-0 0  9993
2   634 035.3867 344.3285 0071083 244.7229 059.4049 01.00257833198553
Epoch (UTC): 10 October 2017 13:37:06
Eccentricity: 0.0071083
inclination: 35.3867°
perigee height: 35490 km
apogee height: 36090 km
right ascension of ascending node: 344.3285°
argument of perigee: 244.7229°
revolutions per day: 1.00257833
mean anomaly at epoch: 59.4049°
orbit number at epoch: 19855

The dashed part of the orbit path shows where the satellite is in the earth's shadow,  

DLR